Weather History for Bishop, CA

Change the Weather History Date:

Tuesday, June 4, 2013

  Actual Average Record
Temperature  
Mean Temperature 76 °F 68 °F  
Max Temperature 98 °F 88 °F 100 °F (1992)
Min Temperature 54 °F 48 °F 36 °F (2009)
Degree Days  
Heating Degree Days 0 1  
Month to date heating degree days 0 7  
Since 1 June heating degree days 0 7  
Since 1 July heating degree days 3851 4165  
Cooling Degree Days 11 5  
Month to date cooling degree days 44 19  
Year to date cooling degree days 130 87  
Since 1 June cooling degree days 44 19  
Growing Degree Days 26 (Base 50)    
Moisture  
Dew Point 29 °F    
Average Humidity 27    
Maximum Humidity 47    
Minimum Humidity 7    
Precipitation  
Precipitation T in 0.01 in 0.04 in (1945)
Month to date precipitation T 0.03  
Year to date precipitation 0.47 2.91  
Snow  
Snow 0.00 in 0.00 in - ()
Month to date snowfall 0.0 0.0  
Since 1 June snowfall 0.0 0.0  
Since 1 July snowfall 2.8 6.8  
Snow Depth 0.00 in    
Sea Level Pressure  
Sea Level Pressure 29.80 in    
Wind  
Wind Speed 6 mph (NNW)    
Max Wind Speed 38 mph    
Max Gust Speed 59 mph    
Visibility 10 miles    
Events      
T = Trace of Precipitation, MM = Missing Value Source: NWS Daily Summary

Daily Weather History Graph

Daily Weather History Graph

Search for Another Location

Airport:

Trip Planner

Search our weather history database for the weather conditions in past years. The results will help you decide how hot, cold, wet, or windy it might be!

Date:

Astronomy

Jun. 04, 2013 Rise Set
Actual Time 5:33 AM PDT 8:10 PM PDT
Civil Twilight 5:02 AM PDT 8:41 PM PDT
Nautical Twilight 4:24 AM PDT 9:19 PM PDT
Astronomical Twilight 3:41 AM PDT 10:02 PM PDT
Moon 3:01 AM PDT (6/4) 4:47 PM PDT (6/4)
Length of Visible Light 15h 38m
Length of Day
14h 37m
Waning Crescent, 13% of the Moon is Illuminated
Jun 4
Waning Crescent
Jun 8
New
Jun 16
First Quarter
Jun 23
Full
Jun 29
Last Quarter

Hourly Weather History & Observations

Time (PDT) Temp. Dew Point Humidity Pressure Visibility Wind Dir Wind Speed Gust Speed Precip Events Conditions
12:56 AM 66.0 °F 36.0 °F 33% 29.76 in 10.0 mi NW 5.8 mph - N/A   Unknown
1:56 AM 60.1 °F 36.0 °F 41% 29.77 in 10.0 mi North 4.6 mph - N/A   Clear
2:56 AM 57.9 °F 36.0 °F 44% 29.78 in 10.0 mi North 5.8 mph - N/A   Clear
3:56 AM 57.9 °F 36.0 °F 44% 29.79 in 10.0 mi WNW 6.9 mph - N/A   Clear
4:56 AM 55.0 °F 35.1 °F 47% 29.81 in 10.0 mi North 5.8 mph - N/A   Clear
5:56 AM 55.0 °F 36.0 °F 49% 29.82 in 10.0 mi NNW 4.6 mph - N/A   Clear
6:56 AM 60.1 °F 37.0 °F 42% 29.84 in 10.0 mi NW 3.5 mph - N/A   Clear
7:56 AM 73.9 °F 32.0 °F 21% 29.83 in 10.0 mi NW 5.8 mph - N/A   Clear
8:56 AM 81.0 °F 30.9 °F 16% 29.83 in 10.0 mi NNE 4.6 mph - N/A   Clear
9:56 AM 84.0 °F 24.1 °F 11% 29.83 in 10.0 mi Variable 3.5 mph - N/A   Unknown
10:56 AM 87.1 °F 23.0 °F 10% 29.82 in 10.0 mi Variable 3.5 mph - N/A   Unknown
11:56 AM 90.0 °F 23.0 °F 9% 29.79 in 10.0 mi Variable 5.8 mph - N/A   Unknown
12:56 PM 91.9 °F 24.1 °F 9% 29.78 in 10.0 mi NNW 4.6 mph - N/A   Unknown
1:56 PM 93.9 °F 21.9 °F 7% 29.76 in 10.0 mi WSW 5.8 mph - N/A   Unknown
2:56 PM 95.0 °F 21.9 °F 7% 29.74 in 10.0 mi Variable 5.8 mph - N/A   Unknown
3:56 PM 93.9 °F 24.1 °F 8% 29.73 in 10.0 mi NE 10.4 mph 17.3 mph N/A   Unknown
4:56 PM 95.0 °F 23.0 °F 8% 29.72 in 10.0 mi ESE 12.7 mph 20.7 mph N/A   Unknown
5:56 PM 90.0 °F 25.0 °F 10% 29.73 in 10.0 mi North 12.7 mph 21.9 mph N/A   Unknown
6:12 PM 89.6 °F 24.8 °F 10% 29.89 in 8.0 mi North 31.1 mph 58.7 mph N/A   Squalls
6:31 PM 87.8 °F 24.8 °F 10% 29.89 in 10.0 mi West 15.0 mph 48.3 mph 0.00 in   Unknown
6:56 PM 88.0 °F 24.1 °F 10% 29.76 in 10.0 mi WNW 6.9 mph - 0.00 in   Unknown
7:56 PM 82.9 °F 35.1 °F 18% 29.77 in 10.0 mi West 10.4 mph - N/A   Unknown
8:56 PM 78.1 °F 35.1 °F 21% 29.80 in 10.0 mi Calm Calm - N/A   Unknown
9:56 PM 75.0 °F 34.0 °F 22% 29.81 in 10.0 mi NW 6.9 mph - N/A   Unknown
10:56 PM 71.1 °F 33.1 °F 25% 29.83 in 10.0 mi North 6.9 mph - N/A   Unknown
11:56 PM 69.1 °F 34.0 °F 27% 29.83 in 10.0 mi NNW 5.8 mph - N/A   Unknown